Home > Weather > Ostermundigen > Past weeks

Flag for Switzerland Past Weather in Ostermundigen, Bern, Switzerland — Yesterday and Last 2 Weeks

Now
61 °F

Partly sunny.


Feels Like: 61 °F
Forecast: 51 / 63 °F
Wind: 9 mph from West

Location: Bern / Belp

Current Time: May 30, 2016 at 10:50:24 AM

Latest Report: May 30, 2016 at 10:20 AM


Visibility: N/A

Pressure: 29.80 "Hg (27.90 "Hg at 556m altitude)

Humidity: 72%

Dew Point: 52 °F

Location of OstermundigenLocation

Past Weather in Ostermundigen — Graph

°F

Ostermundigen Temperature Yesterday

Maximum temperature yesterday: 61 °F (at 12:20 AM)
Minimum temperature yesterday: 57 °F (at 4:50 AM)
Average temperature yesterday: 58 °F

High & Low Weather Summary for the Past Weeks

 TemperatureHumidityPressure
High81 °F (May 27, 5:50 PM)100% (May 16, 3:20 AM)30.18 "Hg (May 16, 3:20 AM)
Low36 °F (May 16, 4:50 AM)34% (May 21, 4:50 PM)29.74 "Hg (May 29, 12:50 AM)
Average56 °F79%29.99 "Hg
* Reported May 15 9:20 AM — May 30 9:20 AM, Ostermundigen, Weather by CustomWeather, © 2016

Note: Actual official high and low records may vary slightly from our data, if they occured in-between our weather recording intervals... More about our weather records

Advertising

Ostermundigen Weather History for the Previous 24 Hours

Scroll right to see more
 ConditionsComfort  
Time TempWeatherWind HumidityBarometerVisibility
9:20 AM
Mon, May 30
59 °FPartly sunny.6 mph77%29.77 "HgN/A
8:50 AM59 °FBroken clouds.5 mph77%29.80 "HgN/A
8:20 AM57 °FBroken clouds.3 mph82%29.80 "HgN/A
7:50 AM57 °FBroken clouds.6 mph82%29.80 "HgN/A
7:20 AM57 °FScattered showers. Partly sunny.8 mph82%29.80 "HgN/A
6:50 AM55 °FPartly sunny.2 mph94%29.80 "HgN/A
6:20 AM55 °FScattered showers. Passing clouds.3 mph88%29.77 "HgN/A
5:50 AM55 °FPassing clouds.3 mph88%29.77 "HgN/A
5:20 AM55 °FPartly cloudy.3 mph94%29.77 "HgN/A
4:50 AM55 °FPassing clouds.3 mph94%29.77 "HgN/A
4:20 AM57 °FPartly cloudy.1 mph82%29.77 "HgN/A
3:50 AM54 °FPartly cloudy.1 mph100%29.77 "HgN/A
3:20 AM55 °FMostly cloudy.1 mph94%29.77 "HgN/A
2:50 AM55 °FPassing clouds.5 mph88%29.80 "HgN/A
2:20 AM57 °FPartly cloudy.5 mph82%29.80 "HgN/A
1:50 AM57 °FPartly cloudy.6 mph82%29.80 "HgN/A
1:20 AM57 °FPartly cloudy.5 mph82%29.80 "HgN/A
12:50 AM57 °FMostly cloudy.5 mph82%29.80 "HgN/A
12:20 AM57 °FPartly cloudy.8 mph82%29.80 "HgN/A
11:50 PM
Sun, May 29
57 °FOvercast.2 mph82%29.80 "HgN/A
11:20 PM57 °FOvercast.5 mph88%29.80 "HgN/A
10:50 PM57 °FSprinkles. Passing clouds.2 mph88%29.80 "HgN/A
10:20 PM57 °FSprinkles. Partly cloudy.5 mph88%29.80 "HgN/A
9:50 PM57 °FDrizzle. Partly sunny.8 mph88%29.80 "HgN/A
9:20 PM59 °FBroken clouds.6 mph82%29.77 "HgN/A
8:50 PM57 °FSprinkles. Broken clouds.2 mph100%29.77 "HgN/A
8:20 PM59 °FBroken clouds.5 mph88%29.77 "HgN/A
7:50 PM59 °FBroken clouds.5 mph94%29.77 "HgN/A
7:20 PM59 °FBroken clouds.1 mph94%29.77 "HgN/A
6:50 PM61 °FSprinkles. More clouds than sun.5 mph83%29.77 "HgN/A
6:20 PM61 °FDrizzle. More clouds than sun.2 mph88%29.77 "HgN/A
5:50 PM61 °FDrizzle. More clouds than sun.2 mph94%29.77 "Hg5 mi
5:20 PM59 °FBroken clouds.2 mph94%29.77 "HgN/A
4:50 PM59 °FLight rain. Broken clouds.2 mph94%29.77 "HgN/A
4:20 PM59 °FLight rain. More clouds than sun.9 mph94%29.77 "HgN/A
3:50 PM59 °FLight rain. Broken clouds.7 mph94%29.77 "Hg5 mi
3:20 PM57 °FLight rain. Broken clouds.8 mph100%29.77 "HgN/A
2:50 PM57 °FLight rain. Broken clouds.7 mph100%29.77 "HgN/A
2:20 PM57 °FLight rain. More clouds than sun.7 mph100%29.77 "HgN/A
1:50 PM57 °FRain. Fog.10 mph94%29.77 "Hg3 mi
1:20 PM57 °FRain. More clouds than sun.5 mph100%29.77 "Hg3 mi
12:50 PM57 °FLight rain. More clouds than sun.2 mph100%29.74 "Hg4 mi
12:20 PM57 °FRain. Cloudy.5 mph100%29.74 "Hg4 mi
11:50 AM57 °FRain. More clouds than sun.5 mph100%29.74 "Hg4 mi
11:20 AM57 °FRain. More clouds than sun.8 mph100%29.74 "Hg4 mi
10:50 AM57 °FRain. Low clouds.6 mph100%29.74 "Hg4 mi
10:20 AM59 °FLight rain. Broken clouds.6 mph100%29.74 "HgN/A
Weather by CustomWeather, © 2016

See weather overviewHow to use our weather pages